Tracking 34794 objects as of 19-Jul-2026
HD Live streaming from Space Station
objects crossing your sky now

STARLINK-32348

Track STARLINK-32348 now!
10-day predictions
STARLINK-32348 is classified as:


NORAD ID: 61631
Int'l Code: 2024-191L
Perigee: 489.7 km
Apogee: 490.7 km
Inclination: 43.0 °
Period: 94.3 minutes
Semi major axis: 6861 km
RCS: Unknown
Launch date: October 23, 2024
Source: United States (US)
Launch site: AIR FORCE EASTERN TEST RANGE (AFETR)
Your satellite tracking list
Your tracking list is empty




NASA's NSSDC Master Catalog

Two Line Element Set (TLE):
1 61631U 24191L   26198.53585756 -.00002073  00000-0 -65833-4 0  9997
2 61631  43.0014 144.7566 0000691 291.8775  68.2003 15.27574981 97351
Source of the keplerian elements: AFSPC